owner,sensor,date,latitude,longitude,vertical_datum,mass_concentration_of_oxygen_in_sea_water,qcFlag 
NERRS,ioos:station:NOAA.NERRS:marscwq:1,2017-05-01T00:00:00Z,27.8383,-97.0503,6.36,6.7,1111122 
NERRS,ioos:station:NOAA.NERRS:marscwq:1,2017-05-01T01:00:00Z,27.8383,-97.0503,6.35,6.7,1111122 
NERRS,ioos:station:NOAA.NERRS:marscwq:1,2017-05-01T02:00:00Z,27.8383,-97.0503,6.26,6.6,1111122 
NERRS,ioos:station:NOAA.NERRS:marscwq:1,2017-05-01T03:00:00Z,27.8383,-97.0503,6.07,6.8,1111122 
NERRS,ioos:station:NOAA.NERRS:marscwq:1,2017-05-01T04:00:00Z,27.8383,-97.0503,6.09,7.0,1111122 
NERRS,ioos:station:NOAA.NERRS:marscwq:1,2017-05-01T05:00:00Z,27.8383,-97.0503,6.01,7.4,1111122 
NERRS,ioos:station:NOAA.NERRS:marscwq:1,2017-05-01T06:00:00Z,27.8383,-97.0503,5.97,7.3,1111122 
NERRS,ioos:station:NOAA.NERRS:marscwq:1,2017-05-01T07:00:00Z,27.8383,-97.0503,6.0,7.0,1111122 
NERRS,ioos:station:NOAA.NERRS:marscwq:1,2017-05-01T08:00:00Z,27.8383,-97.0503,6.0,7.1,1111122 
NERRS,ioos:station:NOAA.NERRS:marscwq:1,2017-05-01T09:00:00Z,27.8383,-97.0503,6.13,7.0,1111122 
NERRS,ioos:station:NOAA.NERRS:marscwq:1,2017-05-01T10:00:00Z,27.8383,-97.0503,6.18,6.9,1111122 
NERRS,ioos:station:NOAA.NERRS:marscwq:1,2017-05-01T11:00:00Z,27.8383,-97.0503,6.3,6.6,1111122 
NERRS,ioos:station:NOAA.NERRS:marscwq:1,2017-05-01T12:00:00Z,27.8383,-97.0503,6.41,6.8,1111122 
NERRS,ioos:station:NOAA.NERRS:marscwq:1,2017-05-01T13:00:00Z,27.8383,-97.0503,6.41,6.7,1111122 
NERRS,ioos:station:NOAA.NERRS:marscwq:1,2017-05-01T14:00:00Z,27.8383,-97.0503,6.39,6.6,1111122 
NERRS,ioos:station:NOAA.NERRS:marscwq:1,2017-05-01T15:00:00Z,27.8383,-97.0503,6.4,6.6,1111122 
NERRS,ioos:station:NOAA.NERRS:marscwq:1,2017-05-01T16:00:00Z,27.8383,-97.0503,6.4,6.6,1111122 
NERRS,ioos:station:NOAA.NERRS:marscwq:1,2017-05-01T17:00:00Z,27.8383,-97.0503,6.36,6.6,1111122 
NERRS,ioos:station:NOAA.NERRS:marscwq:1,2017-05-01T18:00:00Z,27.8383,-97.0503,6.32,6.6,1111122 
NERRS,ioos:station:NOAA.NERRS:marscwq:1,2017-05-01T19:00:00Z,27.8383,-97.0503,6.28,6.5,1111122 
NERRS,ioos:station:NOAA.NERRS:marscwq:1,2017-05-01T20:00:00Z,27.8383,-97.0503,6.26,6.7,1111122 
NERRS,ioos:station:NOAA.NERRS:marscwq:1,2017-05-01T21:00:00Z,27.8383,-97.0503,6.23,6.6,1111122 
NERRS,ioos:station:NOAA.NERRS:marscwq:1,2017-05-01T22:00:00Z,27.8383,-97.0503,6.2,6.6,1111122 
NERRS,ioos:station:NOAA.NERRS:marscwq:1,2017-05-01T23:00:00Z,27.8383,-97.0503,6.15,6.7,1111122 
NERRS,ioos:station:NOAA.NERRS:marscwq:1,2017-05-02T00:00:00Z,27.8383,-97.0503,6.14,6.5,1111122 
NERRS,ioos:station:NOAA.NERRS:marscwq:1,2017-05-02T01:00:00Z,27.8383,-97.0503,6.12,6.9,1111122 
NERRS,ioos:station:NOAA.NERRS:marscwq:1,2017-05-02T02:00:00Z,27.8383,-97.0503,6.14,6.9,1111122 
NERRS,ioos:station:NOAA.NERRS:marscwq:1,2017-05-02T03:00:00Z,27.8383,-97.0503,6.06,7.2,1111122 
NERRS,ioos:station:NOAA.NERRS:marscwq:1,2017-05-02T04:00:00Z,27.8383,-97.0503,6.01,7.4,1111122 
NERRS,ioos:station:NOAA.NERRS:marscwq:1,2017-05-02T05:00:00Z,27.8383,-97.0503,5.92,7.4,1111122 
NERRS,ioos:station:NOAA.NERRS:marscwq:1,2017-05-02T06:00:00Z,27.8383,-97.0503,5.88,7.3,1111122 
NERRS,ioos:station:NOAA.NERRS:marscwq:1,2017-05-02T07:00:00Z,27.8383,-97.0503,5.91,7.2,1111122 
NERRS,ioos:station:NOAA.NERRS:marscwq:1,2017-05-02T08:00:00Z,27.8383,-97.0503,5.91,7.0,1111122 
NERRS,ioos:station:NOAA.NERRS:marscwq:1,2017-05-02T09:00:00Z,27.8383,-97.0503,5.93,6.8,1111122 
NERRS,ioos:station:NOAA.NERRS:marscwq:1,2017-05-02T10:00:00Z,27.8383,-97.0503,6.02,6.7,1111122 
NERRS,ioos:station:NOAA.NERRS:marscwq:1,2017-05-02T11:00:00Z,27.8383,-97.0503,6.1,6.5,1111122 
NERRS,ioos:station:NOAA.NERRS:marscwq:1,2017-05-02T12:00:00Z,27.8383,-97.0503,6.22,6.5,1111122 
NERRS,ioos:station:NOAA.NERRS:marscwq:1,2017-05-02T13:00:00Z,27.8383,-97.0503,6.3,6.8,1111122 
NERRS,ioos:station:NOAA.NERRS:marscwq:1,2017-05-02T14:00:00Z,27.8383,-97.0503,6.32,6.8,1111122 
NERRS,ioos:station:NOAA.NERRS:marscwq:1,2017-05-02T15:00:00Z,27.8383,-97.0503,6.34,6.8,1111122 
NERRS,ioos:station:NOAA.NERRS:marscwq:1,2017-05-02T16:00:00Z,27.8383,-97.0503,6.37,6.8,1111122 
NERRS,ioos:station:NOAA.NERRS:marscwq:1,2017-05-02T17:00:00Z,27.8383,-97.0503,6.36,6.8,1111122 
NERRS,ioos:station:NOAA.NERRS:marscwq:1,2017-05-02T18:00:00Z,27.8383,-97.0503,6.35,6.9,1111122 
NERRS,ioos:station:NOAA.NERRS:marscwq:1,2017-05-02T19:00:00Z,27.8383,-97.0503,6.35,6.8,1111122 
NERRS,ioos:station:NOAA.NERRS:marscwq:1,2017-05-02T20:00:00Z,27.8383,-97.0503,6.36,6.6,1111122 
NERRS,ioos:station:NOAA.NERRS:marscwq:1,2017-05-02T21:00:00Z,27.8383,-97.0503,6.3,6.6,1111122 
NERRS,ioos:station:NOAA.NERRS:marscwq:1,2017-05-02T22:00:00Z,27.8383,-97.0503,6.29,6.7,1111122 
NERRS,ioos:station:NOAA.NERRS:marscwq:1,2017-05-02T23:00:00Z,27.8383,-97.0503,6.29,6.6,1111122 
NERRS,ioos:station:NOAA.NERRS:marscwq:1,2017-05-03T00:00:00Z,27.8383,-97.0503,6.3,6.5,1111122 
NERRS,ioos:station:NOAA.NERRS:marscwq:1,2017-05-03T01:00:00Z,27.8383,-97.0503,6.31,6.6,1111122 
NERRS,ioos:station:NOAA.NERRS:marscwq:1,2017-05-03T02:00:00Z,27.8383,-97.0503,6.34,6.7,1111122 
NERRS,ioos:station:NOAA.NERRS:marscwq:1,2017-05-03T03:00:00Z,27.8383,-97.0503,6.29,6.6,1111122 
NERRS,ioos:station:NOAA.NERRS:marscwq:1,2017-05-03T04:00:00Z,27.8383,-97.0503,6.27,6.6,1111122 
NERRS,ioos:station:NOAA.NERRS:marscwq:1,2017-05-03T05:00:00Z,27.8383,-97.0503,6.25,6.5,1111122 
NERRS,ioos:station:NOAA.NERRS:marscwq:1,2017-05-03T06:00:00Z,27.8383,-97.0503,6.19,6.5,1111122 
NERRS,ioos:station:NOAA.NERRS:marscwq:1,2017-05-03T07:00:00Z,27.8383,-97.0503,6.14,6.5,1111122 
NERRS,ioos:station:NOAA.NERRS:marscwq:1,2017-05-03T08:00:00Z,27.8383,-97.0503,6.09,6.4,1111122 
NERRS,ioos:station:NOAA.NERRS:marscwq:1,2017-05-03T09:00:00Z,27.8383,-97.0503,6.05,6.3,1111122 
NERRS,ioos:station:NOAA.NERRS:marscwq:1,2017-05-03T10:00:00Z,27.8383,-97.0503,6.07,6.3,1111122 
NERRS,ioos:station:NOAA.NERRS:marscwq:1,2017-05-03T11:00:00Z,27.8383,-97.0503,6.15,6.4,1111122 
NERRS,ioos:station:NOAA.NERRS:marscwq:1,2017-05-03T12:00:00Z,27.8383,-97.0503,6.23,6.4,1111122 
NERRS,ioos:station:NOAA.NERRS:marscwq:1,2017-05-03T13:00:00Z,27.8383,-97.0503,6.26,6.4,1111122 
NERRS,ioos:station:NOAA.NERRS:marscwq:1,2017-05-03T14:00:00Z,27.8383,-97.0503,6.33,6.2,1111122 
NERRS,ioos:station:NOAA.NERRS:marscwq:1,2017-05-03T15:00:00Z,27.8383,-97.0503,6.38,6.3,1111122 
NERRS,ioos:station:NOAA.NERRS:marscwq:1,2017-05-03T16:00:00Z,27.8383,-97.0503,6.39,6.4,1111122 
NERRS,ioos:station:NOAA.NERRS:marscwq:1,2017-05-03T17:00:00Z,27.8383,-97.0503,6.36,6.4,1111122 
NERRS,ioos:station:NOAA.NERRS:marscwq:1,2017-05-03T18:00:00Z,27.8383,-97.0503,6.4,6.5,1111122 
NERRS,ioos:station:NOAA.NERRS:marscwq:1,2017-05-03T19:00:00Z,27.8383,-97.0503,6.37,6.5,1111122 
NERRS,ioos:station:NOAA.NERRS:marscwq:1,2017-05-03T20:00:00Z,27.8383,-97.0503,6.32,6.5,1111122 
NERRS,ioos:station:NOAA.NERRS:marscwq:1,2017-05-03T21:00:00Z,27.8383,-97.0503,6.37,6.5,1111122 
NERRS,ioos:station:NOAA.NERRS:marscwq:1,2017-05-03T22:00:00Z,27.8383,-97.0503,6.33,6.5,1111122 
NERRS,ioos:station:NOAA.NERRS:marscwq:1,2017-05-04T01:00:00Z,27.8383,-97.0503,6.33,6.7,1111122 
NERRS,ioos:station:NOAA.NERRS:marscwq:1,2017-05-04T02:00:00Z,27.8383,-97.0503,6.33,6.4,1111122 
NERRS,ioos:station:NOAA.NERRS:marscwq:1,2017-05-04T03:00:00Z,27.8383,-97.0503,6.36,6.4,1111122 
NERRS,ioos:station:NOAA.NERRS:marscwq:1,2017-05-04T04:00:00Z,27.8383,-97.0503,6.32,6.5,1111122 
NERRS,ioos:station:NOAA.NERRS:marscwq:1,2017-05-04T05:00:00Z,27.8383,-97.0503,6.43,6.3,1111122 
NERRS,ioos:station:NOAA.NERRS:marscwq:1,2017-05-04T06:00:00Z,27.8383,-97.0503,6.24,6.5,1111122 
NERRS,ioos:station:NOAA.NERRS:marscwq:1,2017-05-04T07:00:00Z,27.8383,-97.0503,6.16,6.6,1111122 
NERRS,ioos:station:NOAA.NERRS:marscwq:1,2017-05-04T08:00:00Z,27.8383,-97.0503,6.14,6.5,1111122 
NERRS,ioos:station:NOAA.NERRS:marscwq:1,2017-05-04T09:00:00Z,27.8383,-97.0503,6.19,6.5,1111122 
NERRS,ioos:station:NOAA.NERRS:marscwq:1,2017-05-04T10:00:00Z,27.8383,-97.0503,6.2,6.5,1111122 
NERRS,ioos:station:NOAA.NERRS:marscwq:1,2017-05-04T11:00:00Z,27.8383,-97.0503,6.19,6.5,1111122 
NERRS,ioos:station:NOAA.NERRS:marscwq:1,2017-05-04T12:00:00Z,27.8383,-97.0503,6.26,6.4,1111122 
NERRS,ioos:station:NOAA.NERRS:marscwq:1,2017-05-04T13:00:00Z,27.8383,-97.0503,6.17,6.4,1111122 
NERRS,ioos:station:NOAA.NERRS:marscwq:1,2017-05-04T14:00:00Z,27.8383,-97.0503,6.41,6.3,1111122 
NERRS,ioos:station:NOAA.NERRS:marscwq:1,2017-05-04T15:00:00Z,27.8383,-97.0503,6.44,6.2,1111122 
NERRS,ioos:station:NOAA.NERRS:marscwq:1,2017-05-04T16:00:00Z,27.8383,-97.0503,6.47,6.5,1111122 
NERRS,ioos:station:NOAA.NERRS:marscwq:1,2017-05-04T17:00:00Z,27.8383,-97.0503,6.39,6.6,1111122 
NERRS,ioos:station:NOAA.NERRS:marscwq:1,2017-05-04T18:00:00Z,27.8383,-97.0503,6.34,6.9,1111122 
NERRS,ioos:station:NOAA.NERRS:marscwq:1,2017-05-04T19:00:00Z,27.8383,-97.0503,6.39,6.9,1111122 
NERRS,ioos:station:NOAA.NERRS:marscwq:1,2017-05-04T20:00:00Z,27.8383,-97.0503,6.46,7.1,1111122 
NERRS,ioos:station:NOAA.NERRS:marscwq:1,2017-05-04T21:00:00Z,27.8383,-97.0503,6.32,6.8,1111122 
NERRS,ioos:station:NOAA.NERRS:marscwq:1,2017-05-04T22:00:00Z,27.8383,-97.0503,6.15,7.0,1111122 
NERRS,ioos:station:NOAA.NERRS:marscwq:1,2017-05-04T23:00:00Z,27.8383,-97.0503,6.15,6.9,1111122 
NERRS,ioos:station:NOAA.NERRS:marscwq:1,2017-05-05T00:00:00Z,27.8383,-97.0503,6.16,6.9,1111122 
NERRS,ioos:station:NOAA.NERRS:marscwq:1,2017-05-05T01:00:00Z,27.8383,-97.0503,6.12,6.8,1111122 
NERRS,ioos:station:NOAA.NERRS:marscwq:1,2017-05-05T02:00:00Z,27.8383,-97.0503,6.15,6.8,1111122 
NERRS,ioos:station:NOAA.NERRS:marscwq:1,2017-05-05T03:00:00Z,27.8383,-97.0503,6.14,6.7,1111122 
NERRS,ioos:station:NOAA.NERRS:marscwq:1,2017-05-05T04:00:00Z,27.8383,-97.0503,6.16,6.8,1111122 
NERRS,ioos:station:NOAA.NERRS:marscwq:1,2017-05-05T05:00:00Z,27.8383,-97.0503,6.16,6.8,1111122 
NERRS,ioos:station:NOAA.NERRS:marscwq:1,2017-05-05T06:00:00Z,27.8383,-97.0503,6.18,6.9,1111122 
NERRS,ioos:station:NOAA.NERRS:marscwq:1,2017-05-05T07:00:00Z,27.8383,-97.0503,6.07,6.8,1111122 
NERRS,ioos:station:NOAA.NERRS:marscwq:1,2017-05-05T08:00:00Z,27.8383,-97.0503,6.09,6.7,1111122 
NERRS,ioos:station:NOAA.NERRS:marscwq:1,2017-05-05T09:00:00Z,27.8383,-97.0503,6.06,6.7,1111122 
NERRS,ioos:station:NOAA.NERRS:marscwq:1,2017-05-05T10:00:00Z,27.8383,-97.0503,6.04,6.6,1111122 
NERRS,ioos:station:NOAA.NERRS:marscwq:1,2017-05-05T11:00:00Z,27.8383,-97.0503,6.02,6.6,1111122 
NERRS,ioos:station:NOAA.NERRS:marscwq:1,2017-05-05T12:00:00Z,27.8383,-97.0503,6.02,6.5,1111122 
NERRS,ioos:station:NOAA.NERRS:marscwq:1,2017-05-05T13:00:00Z,27.8383,-97.0503,6.0,6.5,1111122 
NERRS,ioos:station:NOAA.NERRS:marscwq:1,2017-05-05T14:00:00Z,27.8383,-97.0503,6.07,6.4,1111122 
NERRS,ioos:station:NOAA.NERRS:marscwq:1,2017-05-05T16:00:00Z,27.8383,-97.0503,6.18,6.3,1111122 
NERRS,ioos:station:NOAA.NERRS:marscwq:1,2017-05-05T17:00:00Z,27.8383,-97.0503,6.18,6.3,1111122 
NERRS,ioos:station:NOAA.NERRS:marscwq:1,2017-05-05T18:00:00Z,27.8383,-97.0503,6.19,6.3,1111122 
NERRS,ioos:station:NOAA.NERRS:marscwq:1,2017-05-05T19:00:00Z,27.8383,-97.0503,6.22,6.4,1111122 
NERRS,ioos:station:NOAA.NERRS:marscwq:1,2017-05-05T21:00:00Z,27.8383,-97.0503,6.13,6.9,1111122 
NERRS,ioos:station:NOAA.NERRS:marscwq:1,2017-05-05T22:00:00Z,27.8383,-97.0503,6.05,6.5,1111122 
NERRS,ioos:station:NOAA.NERRS:marscwq:1,2017-05-05T23:00:00Z,27.8383,-97.0503,6.04,6.7,1111122 
NERRS,ioos:station:NOAA.NERRS:marscwq:1,2017-05-06T00:00:00Z,27.8383,-97.0503,5.96,6.4,1111122 
NERRS,ioos:station:NOAA.NERRS:marscwq:1,2017-05-06T01:00:00Z,27.8383,-97.0503,6.01,7.3,1111122 
NERRS,ioos:station:NOAA.NERRS:marscwq:1,2017-05-06T02:00:00Z,27.8383,-97.0503,6.0,6.7,1111122 
NERRS,ioos:station:NOAA.NERRS:marscwq:1,2017-05-06T04:00:00Z,27.8383,-97.0503,6.08,6.4,1111122 
NERRS,ioos:station:NOAA.NERRS:marscwq:1,2017-05-06T05:00:00Z,27.8383,-97.0503,6.09,6.6,1111122 
NERRS,ioos:station:NOAA.NERRS:marscwq:1,2017-05-06T06:00:00Z,27.8383,-97.0503,6.07,6.7,1111122 
NERRS,ioos:station:NOAA.NERRS:marscwq:1,2017-05-06T07:00:00Z,27.8383,-97.0503,6.07,6.8,1111122 
NERRS,ioos:station:NOAA.NERRS:marscwq:1,2017-05-06T08:00:00Z,27.8383,-97.0503,6.06,6.5,1111122 
NERRS,ioos:station:NOAA.NERRS:marscwq:1,2017-05-06T09:00:00Z,27.8383,-97.0503,6.04,6.3,1111122 
NERRS,ioos:station:NOAA.NERRS:marscwq:1,2017-05-06T11:00:00Z,27.8383,-97.0503,6.0,6.6,1111122 
NERRS,ioos:station:NOAA.NERRS:marscwq:1,2017-05-06T13:00:00Z,27.8383,-97.0503,5.96,6.6,1111122 
NERRS,ioos:station:NOAA.NERRS:marscwq:1,2017-05-06T14:00:00Z,27.8383,-97.0503,5.96,6.4,1111122 
NERRS,ioos:station:NOAA.NERRS:marscwq:1,2017-05-06T15:00:00Z,27.8383,-97.0503,6.0,6.5,1111122 
NERRS,ioos:station:NOAA.NERRS:marscwq:1,2017-05-06T16:00:00Z,27.8383,-97.0503,6.1,6.3,1111122 
NERRS,ioos:station:NOAA.NERRS:marscwq:1,2017-05-06T17:00:00Z,27.8383,-97.0503,6.07,6.5,1111122 
NERRS,ioos:station:NOAA.NERRS:marscwq:1,2017-05-06T18:00:00Z,27.8383,-97.0503,6.11,6.4,1111122 
NERRS,ioos:station:NOAA.NERRS:marscwq:1,2017-05-06T20:00:00Z,27.8383,-97.0503,6.06,6.7,1111122 
NERRS,ioos:station:NOAA.NERRS:marscwq:1,2017-05-06T21:00:00Z,27.8383,-97.0503,6.03,6.9,1111122 
NERRS,ioos:station:NOAA.NERRS:marscwq:1,2017-05-06T22:00:00Z,27.8383,-97.0503,5.99,6.7,1111122 
NERRS,ioos:station:NOAA.NERRS:marscwq:1,2017-05-06T23:00:00Z,27.8383,-97.0503,5.98,6.8,1111122 
NERRS,ioos:station:NOAA.NERRS:marscwq:1,2017-05-07T00:00:00Z,27.8383,-97.0503,5.95,6.0,1111122 
NERRS,ioos:station:NOAA.NERRS:marscwq:1,2017-05-07T02:00:00Z,27.8383,-97.0503,5.97,5.9,1111122 
NERRS,ioos:station:NOAA.NERRS:marscwq:1,2017-05-07T03:00:00Z,27.8383,-97.0503,5.97,5.9,1111122 
NERRS,ioos:station:NOAA.NERRS:marscwq:1,2017-05-07T04:00:00Z,27.8383,-97.0503,6.03,6.2,1111122 
NERRS,ioos:station:NOAA.NERRS:marscwq:1,2017-05-07T06:00:00Z,27.8383,-97.0503,6.12,6.0,1111122 
NERRS,ioos:station:NOAA.NERRS:marscwq:1,2017-05-07T07:00:00Z,27.8383,-97.0503,6.13,5.9,1111122 
NERRS,ioos:station:NOAA.NERRS:marscwq:1,2017-05-07T08:00:00Z,27.8383,-97.0503,6.11,6.5,1111122 
NERRS,ioos:station:NOAA.NERRS:marscwq:1,2017-05-07T08:15:00Z,27.8383,-97.0503,6.1,6.5,1111122 
NERRS,ioos:station:NOAA.NERRS:marscwq:1,2017-05-07T10:00:00Z,27.8383,-97.0503,6.09,6.5,1111122 
NERRS,ioos:station:NOAA.NERRS:marscwq:1,2017-05-07T12:00:00Z,27.8383,-97.0503,6.07,6.3,1111122 
NERRS,ioos:station:NOAA.NERRS:marscwq:1,2017-05-07T13:00:00Z,27.8383,-97.0503,6.04,6.3,1111122 
NERRS,ioos:station:NOAA.NERRS:marscwq:1,2017-05-07T14:00:00Z,27.8383,-97.0503,6.04,6.4,1111122 
NERRS,ioos:station:NOAA.NERRS:marscwq:1,2017-05-07T16:00:00Z,27.8383,-97.0503,6.09,6.3,1111122 
NERRS,ioos:station:NOAA.NERRS:marscwq:1,2017-05-07T17:00:00Z,27.8383,-97.0503,6.1,6.0,1111122 
NERRS,ioos:station:NOAA.NERRS:marscwq:1,2017-05-07T18:00:00Z,27.8383,-97.0503,6.09,6.0,1111122 
NERRS,ioos:station:NOAA.NERRS:marscwq:1,2017-05-07T19:00:00Z,27.8383,-97.0503,6.08,6.3,1111122 
NERRS,ioos:station:NOAA.NERRS:marscwq:1,2017-05-07T21:00:00Z,27.8383,-97.0503,6.0,5.9,1111122 
NERRS,ioos:station:NOAA.NERRS:marscwq:1,2017-05-07T23:00:00Z,27.8383,-97.0503,5.88,6.9,1111122 
NERRS,ioos:station:NOAA.NERRS:marscwq:1,2017-05-08T00:00:00Z,27.8383,-97.0503,5.86,6.9,1111122 
NERRS,ioos:station:NOAA.NERRS:marscwq:1,2017-05-08T02:00:00Z,27.8383,-97.0503,5.83,7.0,1111122 
NERRS,ioos:station:NOAA.NERRS:marscwq:1,2017-05-08T04:00:00Z,27.8383,-97.0503,5.92,7.0,1111122 
NERRS,ioos:station:NOAA.NERRS:marscwq:1,2017-05-08T05:00:00Z,27.8383,-97.0503,5.98,6.8,1111122 
NERRS,ioos:station:NOAA.NERRS:marscwq:1,2017-05-08T06:00:00Z,27.8383,-97.0503,6.04,6.8,1111122 
NERRS,ioos:station:NOAA.NERRS:marscwq:1,2017-05-08T08:00:00Z,27.8383,-97.0503,6.09,6.3,1111122 
NERRS,ioos:station:NOAA.NERRS:marscwq:1,2017-05-08T09:00:00Z,27.8383,-97.0503,6.09,6.2,1111122 
NERRS,ioos:station:NOAA.NERRS:marscwq:1,2017-05-08T10:00:00Z,27.8383,-97.0503,6.07,6.3,1111122 
NERRS,ioos:station:NOAA.NERRS:marscwq:1,2017-05-08T11:00:00Z,27.8383,-97.0503,6.08,6.3,1111122 
NERRS,ioos:station:NOAA.NERRS:marscwq:1,2017-05-08T12:00:00Z,27.8383,-97.0503,6.06,6.3,1111122 
NERRS,ioos:station:NOAA.NERRS:marscwq:1,2017-05-08T14:00:00Z,27.8383,-97.0503,6.08,6.4,1111122 
NERRS,ioos:station:NOAA.NERRS:marscwq:1,2017-05-08T15:00:00Z,27.8383,-97.0503,6.12,6.4,1111122 
NERRS,ioos:station:NOAA.NERRS:marscwq:1,2017-05-08T16:00:00Z,27.8383,-97.0503,6.1,6.5,1111122 
NERRS,ioos:station:NOAA.NERRS:marscwq:1,2017-05-08T17:00:00Z,27.8383,-97.0503,6.12,6.6,1111122 
NERRS,ioos:station:NOAA.NERRS:marscwq:1,2017-05-08T18:00:00Z,27.8383,-97.0503,6.11,6.6,1111122 
NERRS,ioos:station:NOAA.NERRS:marscwq:1,2017-05-08T19:00:00Z,27.8383,-97.0503,6.07,6.7,1111122 
NERRS,ioos:station:NOAA.NERRS:marscwq:1,2017-05-08T20:00:00Z,27.8383,-97.0503,6.13,6.5,1111122 
NERRS,ioos:station:NOAA.NERRS:marscwq:1,2017-05-08T21:00:00Z,27.8383,-97.0503,6.07,6.5,1111122 
NERRS,ioos:station:NOAA.NERRS:marscwq:1,2017-05-08T22:00:00Z,27.8383,-97.0503,6.03,4.9,1111122 
NERRS,ioos:station:NOAA.NERRS:marscwq:1,2017-05-08T23:00:00Z,27.8383,-97.0503,5.98,5.4,1111122 
NERRS,ioos:station:NOAA.NERRS:marscwq:1,2017-05-09T01:00:00Z,27.8383,-97.0503,5.9,5.9,1111122 
NERRS,ioos:station:NOAA.NERRS:marscwq:1,2017-05-09T02:00:00Z,27.8383,-97.0503,5.92,6.1,1111122 
NERRS,ioos:station:NOAA.NERRS:marscwq:1,2017-05-09T03:00:00Z,27.8383,-97.0503,5.89,6.0,1111122 
NERRS,ioos:station:NOAA.NERRS:marscwq:1,2017-05-09T04:00:00Z,27.8383,-97.0503,5.93,6.4,1111122 
NERRS,ioos:station:NOAA.NERRS:marscwq:1,2017-05-09T05:00:00Z,27.8383,-97.0503,6.05,6.6,1111122 
NERRS,ioos:station:NOAA.NERRS:marscwq:1,2017-05-09T06:00:00Z,27.8383,-97.0503,6.09,6.5,1111122 
NERRS,ioos:station:NOAA.NERRS:marscwq:1,2017-05-09T07:00:00Z,27.8383,-97.0503,6.14,6.6,1111122 
NERRS,ioos:station:NOAA.NERRS:marscwq:1,2017-05-09T08:00:00Z,27.8383,-97.0503,6.16,6.4,1111122 
NERRS,ioos:station:NOAA.NERRS:marscwq:1,2017-05-09T09:00:00Z,27.8383,-97.0503,6.18,6.4,1111122 
NERRS,ioos:station:NOAA.NERRS:marscwq:1,2017-05-09T10:00:00Z,27.8383,-97.0503,6.18,6.3,1111122 
NERRS,ioos:station:NOAA.NERRS:marscwq:1,2017-05-09T11:00:00Z,27.8383,-97.0503,6.17,6.3,1111122 
NERRS,ioos:station:NOAA.NERRS:marscwq:1,2017-05-09T13:00:00Z,27.8383,-97.0503,6.15,6.3,1111122 
NERRS,ioos:station:NOAA.NERRS:marscwq:1,2017-05-09T14:00:00Z,27.8383,-97.0503,6.18,6.3,1111122 
NERRS,ioos:station:NOAA.NERRS:marscwq:1,2017-05-09T15:00:00Z,27.8383,-97.0503,6.16,6.2,1111122 
NERRS,ioos:station:NOAA.NERRS:marscwq:1,2017-05-09T16:00:00Z,27.8383,-97.0503,6.17,6.3,1111122 
NERRS,ioos:station:NOAA.NERRS:marscwq:1,2017-05-09T17:00:00Z,27.8383,-97.0503,6.16,6.3,1111122 
NERRS,ioos:station:NOAA.NERRS:marscwq:1,2017-05-09T18:00:00Z,27.8383,-97.0503,6.18,6.3,1111122 
NERRS,ioos:station:NOAA.NERRS:marscwq:1,2017-05-09T19:00:00Z,27.8383,-97.0503,6.2,6.3,1111122 
NERRS,ioos:station:NOAA.NERRS:marscwq:1,2017-05-09T20:00:00Z,27.8383,-97.0503,6.15,6.4,1111122 
NERRS,ioos:station:NOAA.NERRS:marscwq:1,2017-05-09T21:00:00Z,27.8383,-97.0503,6.11,6.3,1111122 
NERRS,ioos:station:NOAA.NERRS:marscwq:1,2017-05-09T22:00:00Z,27.8383,-97.0503,6.13,6.3,1111122 
NERRS,ioos:station:NOAA.NERRS:marscwq:1,2017-05-09T23:00:00Z,27.8383,-97.0503,6.01,6.3,1111122 
NERRS,ioos:station:NOAA.NERRS:marscwq:1,2017-05-10T00:00:00Z,27.8383,-97.0503,5.96,6.2,1111122 
NERRS,ioos:station:NOAA.NERRS:marscwq:1,2017-05-10T01:00:00Z,27.8383,-97.0503,5.94,6.3,1111122 
NERRS,ioos:station:NOAA.NERRS:marscwq:1,2017-05-10T02:00:00Z,27.8383,-97.0503,5.89,6.3,1111122 
NERRS,ioos:station:NOAA.NERRS:marscwq:1,2017-05-10T03:00:00Z,27.8383,-97.0503,5.87,6.3,1111122 
NERRS,ioos:station:NOAA.NERRS:marscwq:1,2017-05-10T04:00:00Z,27.8383,-97.0503,5.94,6.6,1111122 
NERRS,ioos:station:NOAA.NERRS:marscwq:1,2017-05-10T05:00:00Z,27.8383,-97.0503,5.99,6.7,1111122 
NERRS,ioos:station:NOAA.NERRS:marscwq:1,2017-05-10T06:00:00Z,27.8383,-97.0503,6.03,6.6,1111122 
NERRS,ioos:station:NOAA.NERRS:marscwq:1,2017-05-10T07:00:00Z,27.8383,-97.0503,6.12,6.5,1111122 
NERRS,ioos:station:NOAA.NERRS:marscwq:1,2017-05-10T08:00:00Z,27.8383,-97.0503,6.16,6.5,1111122 
NERRS,ioos:station:NOAA.NERRS:marscwq:1,2017-05-10T09:00:00Z,27.8383,-97.0503,6.2,6.5,1111122 
NERRS,ioos:station:NOAA.NERRS:marscwq:1,2017-05-10T10:00:00Z,27.8383,-97.0503,6.19,6.5,1111122 
NERRS,ioos:station:NOAA.NERRS:marscwq:1,2017-05-10T11:00:00Z,27.8383,-97.0503,6.21,6.5,1111122 
NERRS,ioos:station:NOAA.NERRS:marscwq:1,2017-05-10T12:00:00Z,27.8383,-97.0503,6.2,6.6,1111122 
NERRS,ioos:station:NOAA.NERRS:marscwq:1,2017-05-10T13:00:00Z,27.8383,-97.0503,6.18,6.5,1111122 
NERRS,ioos:station:NOAA.NERRS:marscwq:1,2017-05-10T14:00:00Z,27.8383,-97.0503,6.18,6.5,1111122 
NERRS,ioos:station:NOAA.NERRS:marscwq:1,2017-05-10T15:00:00Z,27.8383,-97.0503,6.19,6.6,1111122 
NERRS,ioos:station:NOAA.NERRS:marscwq:1,2017-05-10T16:00:00Z,27.8383,-97.0503,6.23,6.5,1111122 
NERRS,ioos:station:NOAA.NERRS:marscwq:1,2017-05-10T17:00:00Z,27.8383,-97.0503,6.19,6.6,1111122 
NERRS,ioos:station:NOAA.NERRS:marscwq:1,2017-05-10T19:00:00Z,27.8383,-97.0503,6.2,6.6,1111122 
NERRS,ioos:station:NOAA.NERRS:marscwq:1,2017-05-10T20:00:00Z,27.8383,-97.0503,6.18,6.5,1111122 
NERRS,ioos:station:NOAA.NERRS:marscwq:1,2017-05-10T21:00:00Z,27.8383,-97.0503,6.13,6.5,1111122 
NERRS,ioos:station:NOAA.NERRS:marscwq:1,2017-05-10T22:00:00Z,27.8383,-97.0503,6.1,6.3,1111122 
NERRS,ioos:station:NOAA.NERRS:marscwq:1,2017-05-10T23:00:00Z,27.8383,-97.0503,6.04,6.4,1111122 
NERRS,ioos:station:NOAA.NERRS:marscwq:1,2017-05-11T00:00:00Z,27.8383,-97.0503,5.95,6.5,1111122 
NERRS,ioos:station:NOAA.NERRS:marscwq:1,2017-05-11T01:00:00Z,27.8383,-97.0503,5.92,6.5,1111122 
NERRS,ioos:station:NOAA.NERRS:marscwq:1,2017-05-11T02:00:00Z,27.8383,-97.0503,5.91,6.5,1111122 
NERRS,ioos:station:NOAA.NERRS:marscwq:1,2017-05-11T03:00:00Z,27.8383,-97.0503,5.91,6.4,1111122 
NERRS,ioos:station:NOAA.NERRS:marscwq:1,2017-05-11T04:00:00Z,27.8383,-97.0503,5.93,6.7,1111122 
NERRS,ioos:station:NOAA.NERRS:marscwq:1,2017-05-11T05:00:00Z,27.8383,-97.0503,5.95,6.8,1111122 
NERRS,ioos:station:NOAA.NERRS:marscwq:1,2017-05-11T06:00:00Z,27.8383,-97.0503,6.02,6.8,1111122 
NERRS,ioos:station:NOAA.NERRS:marscwq:1,2017-05-11T07:00:00Z,27.8383,-97.0503,6.12,6.4,1111122 
NERRS,ioos:station:NOAA.NERRS:marscwq:1,2017-05-11T08:00:00Z,27.8383,-97.0503,6.2,6.6,1111122 
NERRS,ioos:station:NOAA.NERRS:marscwq:1,2017-05-11T09:00:00Z,27.8383,-97.0503,6.21,6.4,1111122 
NERRS,ioos:station:NOAA.NERRS:marscwq:1,2017-05-11T10:00:00Z,27.8383,-97.0503,6.22,6.5,1111122 
NERRS,ioos:station:NOAA.NERRS:marscwq:1,2017-05-11T11:00:00Z,27.8383,-97.0503,6.23,6.5,1111122 
NERRS,ioos:station:NOAA.NERRS:marscwq:1,2017-05-11T12:00:00Z,27.8383,-97.0503,6.22,6.4,1111122 
NERRS,ioos:station:NOAA.NERRS:marscwq:1,2017-05-11T13:00:00Z,27.8383,-97.0503,6.2,6.4,1111122 
NERRS,ioos:station:NOAA.NERRS:marscwq:1,2017-05-11T14:00:00Z,27.8383,-97.0503,6.21,6.4,1111122 
NERRS,ioos:station:NOAA.NERRS:marscwq:1,2017-05-11T15:00:00Z,27.8383,-97.0503,6.22,6.4,1111122 
NERRS,ioos:station:NOAA.NERRS:marscwq:1,2017-05-11T16:00:00Z,27.8383,-97.0503,6.22,6.4,1111122 
NERRS,ioos:station:NOAA.NERRS:marscwq:1,2017-05-11T17:00:00Z,27.8383,-97.0503,6.17,6.4,1111122 
NERRS,ioos:station:NOAA.NERRS:marscwq:1,2017-05-11T18:00:00Z,27.8383,-97.0503,6.13,6.4,1111122 
NERRS,ioos:station:NOAA.NERRS:marscwq:1,2017-05-11T19:00:00Z,27.8383,-97.0503,6.13,6.4,1111122 
NERRS,ioos:station:NOAA.NERRS:marscwq:1,2017-05-12T01:00:00Z,27.8383,-97.0503,5.87,6.6,1111122 
NERRS,ioos:station:NOAA.NERRS:marscwq:1,2017-05-12T02:00:00Z,27.8383,-97.0503,5.81,6.5,1111122 
NERRS,ioos:station:NOAA.NERRS:marscwq:1,2017-05-12T03:00:00Z,27.8383,-97.0503,5.8,6.8,1111122 
NERRS,ioos:station:NOAA.NERRS:marscwq:1,2017-05-12T04:00:00Z,27.8383,-97.0503,5.78,6.6,1111122 
NERRS,ioos:station:NOAA.NERRS:marscwq:1,2017-05-12T05:00:00Z,27.8383,-97.0503,5.83,6.8,1111122 
NERRS,ioos:station:NOAA.NERRS:marscwq:1,2017-05-12T06:00:00Z,27.8383,-97.0503,5.9,6.5,1111122 
NERRS,ioos:station:NOAA.NERRS:marscwq:1,2017-05-12T07:00:00Z,27.8383,-97.0503,5.97,6.4,1111122 
NERRS,ioos:station:NOAA.NERRS:marscwq:1,2017-05-12T08:00:00Z,27.8383,-97.0503,6.04,6.2,1111122 
NERRS,ioos:station:NOAA.NERRS:marscwq:1,2017-05-12T09:00:00Z,27.8383,-97.0503,6.13,6.3,1111122 
NERRS,ioos:station:NOAA.NERRS:marscwq:1,2017-05-12T10:00:00Z,27.8383,-97.0503,6.21,6.1,1111122 